Monroe, WI

12:12 AM CDT on April 29, 2017 (GMT -0500)
Monroe Municipal

Weather History for KEFT - February, 2015

Change the Weather History Date:

Monday, February 9, 2015

  Actual Average Record
Temperature  
Mean Temperature 22 °F -  
Max Temperature 28 °F 0 °F 48 °F (1999)
Min Temperature 17 °F - -4 °F (2003)
Degree Days  
Heating Degree Days 42    
Moisture  
Dew Point 17 °F    
Average Humidity 80    
Maximum Humidity 93    
Minimum Humidity 64    
Precipitation  
Precipitation 0.00 in - - ()
Sea Level Pressure  
Sea Level Pressure 30.18 in    
Wind  
Wind Speed 10 mph (NNE)    
Max Wind Speed 16 mph    
Max Gust Speed 21 mph    
Visibility 10 miles    
Events      
Averages and records for this station are not official NWS values.
T = Trace of Precipitation, MM = Missing Value Source: NWS Daily Summary

Daily Weather History Graph

Daily Weather History Graph

Search for Another Location

Airport or City:

Trip Planner

Search our weather history database for the weather conditions in past years. The results will help you decide how hot, cold, wet, or windy it might be!

Date:

Astronomy

Feb. 09, 2015 Rise Set
Actual Time 7:03 AM CST 5:22 PM CST
Civil Twilight 6:34 AM CST 5:51 PM CST
Nautical Twilight 6:00 AM CST 6:24 PM CST
Astronomical Twilight 5:28 AM CST 6:57 PM CST
Moon 11:04 PM CST (2/9) 9:34 AM CST (2/9)
Length of Visible Light 11h 17m
Length of Day
10h 18m
Waning Gibbous, 73% of the Moon is Illuminated
Feb 9
Waning Gibbous
Feb 11
Last Quarter
Feb 18
New
Feb 25
First Quarter
Mar 5
Full

Hourly Weather History & Observations

Time (CST) Temp. Windchill Dew Point Humidity Pressure Visibility Wind Dir Wind Speed Gust Speed Precip Events Conditions
12:15 AM 21.2 °F 7.8 °F 17.6 °F 86% 30.07 in 10.0 mi NNE 15.0 mph 20.7 mph N/A   Overcast
12:35 AM 21.2 °F 8.9 °F 17.6 °F 86% 30.06 in 10.0 mi North 12.7 mph - N/A   Overcast
12:55 AM 19.4 °F 6.6 °F 17.6 °F 93% 30.07 in 10.0 mi North 12.7 mph - N/A   Overcast
1:15 AM 21.2 °F 10.1 °F 17.6 °F 86% 30.07 in 10.0 mi North 10.4 mph - N/A   Overcast
1:35 AM 21.2 °F 8.3 °F 17.6 °F 86% 30.07 in 10.0 mi North 13.8 mph - N/A   Overcast
1:55 AM 21.2 °F 9.5 °F 17.6 °F 86% 30.08 in 10.0 mi North 11.5 mph - N/A   Overcast
2:15 AM 21.2 °F 9.5 °F 17.6 °F 86% 30.08 in 10.0 mi North 11.5 mph 16.1 mph N/A   Overcast
2:35 AM 21.2 °F 10.9 °F 17.6 °F 86% 30.09 in 10.0 mi North 9.2 mph 17.3 mph N/A   Overcast
2:55 AM 21.2 °F 10.9 °F 17.6 °F 86% 30.08 in 10.0 mi North 9.2 mph 17.3 mph N/A   Overcast
3:15 AM 21.2 °F 10.1 °F 17.6 °F 86% 30.09 in 10.0 mi North 10.4 mph - N/A   Overcast
3:35 AM 21.2 °F 7.8 °F 17.6 °F 86% 30.09 in 10.0 mi North 15.0 mph - N/A   Overcast
3:55 AM 21.2 °F 8.9 °F 17.6 °F 86% 30.10 in 10.0 mi North 12.7 mph 16.1 mph N/A   Overcast
4:15 AM 21.2 °F 9.5 °F 17.6 °F 86% 30.10 in 10.0 mi North 11.5 mph 16.1 mph N/A   Overcast
4:35 AM 21.2 °F 9.5 °F 17.6 °F 86% 30.11 in 10.0 mi North 11.5 mph - N/A   Overcast
4:55 AM 21.2 °F 9.5 °F 17.6 °F 86% 30.12 in 10.0 mi North 11.5 mph 18.4 mph N/A   Overcast
5:15 AM 21.2 °F 10.1 °F 17.6 °F 86% 30.12 in 10.0 mi North 10.4 mph - N/A   Overcast
5:35 AM 21.2 °F 10.1 °F 17.6 °F 86% 30.13 in 10.0 mi North 10.4 mph - N/A   Overcast
5:55 AM 21.2 °F 8.3 °F 17.6 °F 86% 30.14 in 10.0 mi North 13.8 mph 18.4 mph N/A   Overcast
6:15 AM 21.2 °F 11.7 °F 17.6 °F 86% 30.15 in 10.0 mi North 8.1 mph - N/A   Overcast
6:35 AM 21.2 °F 11.7 °F 17.6 °F 86% 30.15 in 10.0 mi North 8.1 mph 16.1 mph N/A   Overcast
6:55 AM 21.2 °F 10.9 °F 17.6 °F 86% 30.17 in 10.0 mi North 9.2 mph - N/A   Overcast
7:15 AM 21.2 °F 10.1 °F 17.6 °F 86% 30.18 in 10.0 mi North 10.4 mph 16.1 mph N/A   Overcast
7:35 AM 21.2 °F 11.7 °F 17.6 °F 86% 30.19 in 10.0 mi North 8.1 mph 16.1 mph N/A   Overcast
7:55 AM 21.2 °F 10.9 °F 17.6 °F 86% 30.20 in 10.0 mi North 9.2 mph - N/A   Overcast
8:15 AM 21.2 °F 9.5 °F 17.6 °F 86% 30.20 in 10.0 mi North 11.5 mph - N/A   Overcast
8:35 AM 21.2 °F 9.5 °F 17.6 °F 86% 30.20 in 10.0 mi North 11.5 mph 18.4 mph N/A   Overcast
8:55 AM 21.2 °F 9.5 °F 17.6 °F 86% 30.20 in 10.0 mi North 11.5 mph 17.3 mph N/A   Overcast
9:15 AM 21.2 °F 9.5 °F 17.6 °F 86% 30.20 in 10.0 mi North 11.5 mph - N/A   Overcast
9:35 AM 21.2 °F 8.3 °F 17.6 °F 86% 30.21 in 10.0 mi North 13.8 mph - N/A   Overcast
9:55 AM 21.2 °F 7.3 °F 17.6 °F 86% 30.21 in 10.0 mi North 16.1 mph - N/A   Overcast
10:15 AM 21.2 °F 8.3 °F 17.6 °F 86% 30.21 in 10.0 mi North 13.8 mph - N/A   Overcast
10:35 AM 23.0 °F 11.7 °F 19.4 °F 86% 30.21 in 10.0 mi North 11.5 mph - N/A   Overcast
10:55 AM 23.0 °F 11.7 °F 19.4 °F 86% 30.21 in 10.0 mi North 11.5 mph - N/A   Overcast
11:10 AM 23.0 °F 11.1 °F 19.4 °F 86% 30.21 in 10.0 mi NNE 12.7 mph - N/A   Overcast
11:30 AM 24.8 °F 11.9 °F 19.4 °F 80% 30.21 in 10.0 mi NNE 16.1 mph - N/A   Mostly Cloudy
11:55 AM 24.8 °F 14.0 °F 17.6 °F 74% 30.21 in 10.0 mi North 11.5 mph 16.1 mph N/A   Scattered Clouds
12:10 PM 26.6 °F 17.5 °F 17.6 °F 69% 30.20 in 10.0 mi NNE 9.2 mph - N/A   Clear
12:35 PM 26.6 °F 17.5 °F 17.6 °F 69% 30.20 in 10.0 mi North 9.2 mph - N/A   Clear
12:55 PM 26.6 °F 18.2 °F 17.6 °F 69% 30.19 in 10.0 mi North 8.1 mph - N/A   Clear
1:15 PM 26.6 °F 16.8 °F 17.6 °F 69% 30.19 in 10.0 mi North 10.4 mph - N/A   Clear
1:35 PM 26.6 °F 17.5 °F 17.6 °F 69% 30.19 in 10.0 mi North 9.2 mph - N/A   Clear
1:55 PM 26.6 °F 16.8 °F 17.6 °F 69% 30.19 in 10.0 mi North 10.4 mph - N/A   Clear
2:15 PM 26.6 °F 17.5 °F 17.6 °F 69% 30.19 in 10.0 mi North 9.2 mph - N/A   Clear
2:35 PM 26.6 °F 19.1 °F 17.6 °F 69% 30.18 in 10.0 mi North 6.9 mph - N/A   Clear
2:55 PM 28.4 °F 23.3 °F 17.6 °F 64% 30.19 in 10.0 mi North 4.6 mph - N/A   Clear
3:15 PM 28.4 °F 20.4 °F 17.6 °F 64% 30.19 in 10.0 mi North 8.1 mph - N/A   Clear
3:35 PM 28.4 °F 20.4 °F 17.6 °F 64% 30.19 in 10.0 mi NNE 8.1 mph - N/A   Clear
3:55 PM 26.6 °F 18.2 °F 17.6 °F 69% 30.19 in 10.0 mi NNE 8.1 mph - N/A   Clear
4:15 PM 26.6 °F 18.2 °F 17.6 °F 69% 30.19 in 10.0 mi North 8.1 mph - N/A   Clear
4:35 PM 26.6 °F 18.2 °F 17.6 °F 69% 30.19 in 10.0 mi NE 8.1 mph - N/A   Clear
4:55 PM 24.8 °F 17.9 °F 17.6 °F 74% 30.20 in 10.0 mi NE 5.8 mph - N/A   Clear
5:15 PM 23.0 °F 17.0 °F 17.6 °F 80% 30.20 in 10.0 mi NE 4.6 mph - N/A   Clear
5:35 PM 23.0 °F 17.0 °F 15.8 °F 74% 30.21 in 10.0 mi NE 4.6 mph - N/A   Clear
5:55 PM 23.0 °F 17.0 °F 15.8 °F 74% 30.22 in 10.0 mi NNE 4.6 mph - N/A   Clear
6:15 PM 23.0 °F 15.8 °F 15.8 °F 74% 30.22 in 10.0 mi NE 5.8 mph - N/A   Clear
6:35 PM 23.0 °F 15.8 °F 15.8 °F 74% 30.22 in 10.0 mi ENE 5.8 mph - N/A   Clear
6:55 PM 21.2 °F 14.9 °F 15.8 °F 80% 30.22 in 10.0 mi NE 4.6 mph - N/A   Clear
7:15 PM 21.2 °F 13.6 °F 14.0 °F 74% 30.22 in 10.0 mi NE 5.8 mph - N/A   Clear
7:35 PM 21.2 °F 16.4 °F 14.0 °F 74% 30.22 in 10.0 mi ENE 3.5 mph - N/A   Clear
7:55 PM 21.2 °F 16.4 °F 14.0 °F 74% 30.23 in 10.0 mi ENE 3.5 mph - N/A   Clear
8:15 PM 19.4 °F 12.8 °F 14.0 °F 80% 30.23 in 10.0 mi ENE 4.6 mph - N/A   Clear
8:35 PM 19.4 °F 12.8 °F 14.0 °F 80% 30.23 in 10.0 mi ENE 4.6 mph - N/A   Clear
8:55 PM 19.4 °F 12.8 °F 14.0 °F 80% 30.23 in 10.0 mi ENE 4.6 mph - N/A   Clear
9:15 PM 19.4 °F - 14.0 °F 80% 30.24 in 10.0 mi Calm Calm - N/A   Clear
9:35 PM 19.4 °F 12.8 °F 14.0 °F 80% 30.24 in 10.0 mi East 4.6 mph - N/A   Clear
9:55 PM 17.6 °F 9.3 °F 12.2 °F 79% 30.24 in 10.0 mi ENE 5.8 mph - N/A   Clear
10:15 PM 17.6 °F 10.7 °F 12.2 °F 79% 30.24 in 10.0 mi ENE 4.6 mph - N/A   Clear
10:35 PM 17.6 °F 10.7 °F 12.2 °F 79% 30.25 in 10.0 mi ENE 4.6 mph - N/A   Clear
10:55 PM 17.6 °F - 12.2 °F 79% 30.25 in 10.0 mi Calm Calm - N/A   Clear
11:15 PM 17.6 °F - 14.0 °F 86% 30.25 in 10.0 mi Calm Calm - N/A   Clear
11:35 PM 17.6 °F - 12.2 °F 79% 30.26 in 10.0 mi Calm Calm - N/A   Clear
11:55 PM 17.6 °F - 12.2 °F 79% 30.26 in 10.0 mi Calm Calm - N/A   Clear